Theta_e
317 317 318 316 317 318 318 316 316 316 315 315 314 314 315 314 313 314 313 313 313 313 314 315 314 314 315 316 316 317 315 314 316 320 322 322 323 320 325 327 328 330 330 328 327 326 326
316 317 318 316 314 317 317 317 316 315 316 316 316 314 314 314 314 313 313 312 313 313 314 313 314 314 315 316 313 314 316 316 316 317 320 321 322 320 320 323 327 328 329 330 328 327 326
317 316 317 317 314 315 317 317 317 315 313 317 316 315 313 313 312 313 314 313 313 313 313 314 314 314 314 313 312 313 315 316 315 315 316 320 320 323 320 321 323 325 327 330 329 328 328
318 317 316 317 314 315 316 316 317 316 314 313 315 315 313 312 313 312 313 312 312 312 311 313 311 314 314 313 313 312 312 312 313 312 313 314 317 320 322 320 324 329 327 330 329 329 327
318 317 316 315 314 314 316 316 316 316 316 314 313 314 314 312 313 313 312 310 309 309 312 312 312 313 313 312 313 312 312 312 312 312 313 313 314 319 321 322 326 328 331 330 331 328 327
318 317 315 315 315 316 316 315 315 316 316 315 314 314 314 311 312 312 312 310 309 310 312 313 311 312 312 312 312 312 312 312 312 312 313 315 316 320 322 323 326 328 332 328 331 329 328
315 316 315 314 313 315 314 314 315 315 315 315 314 312 314 310 311 312 312 311 312 312 312 311 312 311 312 312 312 311 312 312 312 313 314 315 318 320 320 320 322 325 327 331 327 329 328
313 313 317 314 313 313 313 314 315 315 315 315 313 312 313 310 310 310 312 311 312 311 314 312 312 312 311 311 312 312 311 313 313 315 313 316 318 316 317 318 321 322 327 330 329 328 328
308 311 315 316 313 313 313 313 314 314 315 315 314 311 311 309 310 310 312 311 310 311 313 313 312 312 312 311 313 313 312 312 313 314 314 316 316 315 316 317 321 321 325 329 331 329 328
307 307 309 309 313 313 313 313 314 314 315 315 314 311 310 309 310 311 313 312 312 310 313 312 312 313 312 311 312 311 312 313 313 313 313 315 314 314 317 317 318 322 323 326 331 334 335
305 307 306 307 307 311 313 313 314 315 315 315 315 312 310 308 313 312 312 311 311 309 319 312 312 310 311 312 312 311 311 313 314 313 313 315 315 314 316 319 317 321 323 325 330 334 333
304 305 305 307 306 306 311 314 314 315 315 315 315 314 309 310 310 311 310 309 308 313 317 315 311 313 313 311 312 312 312 313 312 314 313 314 313 314 315 315 316 319 321 326 331 333 337
303 304 305 306 305 304 305 313 313 314 316 315 315 315 309 311 311 310 309 308 313 317 313 316 315 313 312 314 313 312 313 313 314 315 314 315 315 313 313 320 316 321 326 334 335 338 337
302 304 305 306 304 303 307 312 313 314 315 315 316 315 311 310 311 310 308 311 316 314 315 313 313 313 316 314 314 313 314 313 312 313 315 316 316 316 313 317 321 323 325 329 337 338 329
301 303 304 305 304 302 306 313 313 314 315 315 316 316 312 308 311 308 311 312 315 316 316 315 314 316 314 315 315 314 314 314 312 312 316 319 318 316 318 315 321 322 322 322 332 325 327
301 302 304 305 306 303 305 312 313 314 315 315 315 313 312 309 310 309 312 314 314 314 313 314 318 314 313 314 313 313 313 312 313 313 312 314 321 319 319 320 322 325 325 332 330 331 332
301 302 302 303 305 303 305 307 314 315 315 316 311 313 311 310 309 311 313 313 312 312 312 314 315 314 313 313 312 312 311 311 313 314 312 312 315 320 317 327 326 327 330 330 330 329 330
300 301 302 303 304 303 305 305 312 315 314 315 311 315 311 311 313 312 313 312 312 314 313 314 314 315 312 313 312 313 313 315 313 313 315 313 317 323 322 319 324 327 329 328 329 330 327
299 300 301 303 305 304 304 308 312 314 315 311 313 315 312 310 314 314 312 313 311 313 317 316 316 313 311 312 312 311 315 315 314 314 316 314 318 325 323 325 326 330 329 327 327 326 328
297 299 301 303 304 303 303 305 315 314 315 313 313 317 314 312 313 314 314 316 314 313 314 316 315 312 312 312 311 316 315 316 314 314 317 322 324 321 330 328 326 330 328 326 327 328 327
297 299 300 302 303 303 305 305 312 314 314 311 312 316 313 314 313 314 316 315 317 315 317 316 314 313 312 313 313 313 315 316 317 315 317 316 327 326 325 327 327 328 327 327 328 327 326
296 298 300 302 303 301 303 304 307 313 314 311 313 313 314 317 313 314 315 317 318 315 318 319 317 320 318 315 313 314 315 316 317 317 315 317 324 324 322 322 324 328 327 326 326 324 324
296 297 299 301 302 302 302 303 305 313 313 311 311 312 312 318 319 318 319 318 319 317 315 317 318 316 321 316 315 313 313 315 318 320 321 320 323 324 322 321 322 323 323 325 325 324 325
296 297 299 301 302 301 302 303 304 312 313 312 310 311 314 315 313 318 319 319 320 319 318 319 320 318 321 318 319 320 318 315 315 319 319 321 323 324 322 321 324 321 316 319 321 322 320
296 297 298 300 301 301 301 302 304 311 312 311 309 310 314 317 315 314 313 318 315 314 318 318 319 314 315 317 323 324 323 323 318 313 316 319 324 326 326 326 324 324 316 318 320 321 319
295 297 298 300 301 301 301 302 304 311 311 312 310 309 310 313 314 312 312 319 319 315 313 312 308 308 313 316 324 324 325 324 323 320 316 322 322 327 321 325 327 318 316 314 318 321 314
295 296 298 300 301 301 301 301 304 309 311 312 310 311 310 313 313 310 312 314 317 314 314 311 310 312 314 321 324 324 328 322 326 324 323 324 324 327 325 326 323 317 314 313 320 320 313
295 296 298 299 300 301 301 302 303 310 311 311 310 311 310 313 313 311 311 310 313 313 315 312 314 316 319 322 325 324 323 324 323 321 323 324 325 325 324 327 327 314 314 318 317 314 314
295 296 297 299 300 300 301 303 304 307 310 310 310 310 311 310 313 311 310 310 309 309 311 310 316 318 321 322 322 319 320 316 322 326 320 324 322 324 323 322 316 313 314 313 314 313 313
Wind_Speed
23 22 21 23 22 18 16 15 15 15 16 14 13 12 10 9 9 9 7 7 6 7 7 6 5 5 5 8 13 2 4 5 4 12 18 15 14 12 13 9 15 21 17 20 16 16 16
23 23 23 21 25 22 18 16 15 15 17 16 14 13 12 11 10 9 8 6 6 8 8 8 7 7 6 14 11 17 8 6 4 4 16 16 12 12 15 16 16 9 19 18 19 17 13
24 23 24 23 24 24 21 19 17 15 15 18 15 14 15 13 11 9 8 6 6 8 9 8 8 9 11 14 5 9 18 18 14 12 7 18 20 14 7 15 13 15 16 15 22 19 15
25 24 24 24 25 25 24 20 18 16 15 16 16 16 15 16 13 11 10 6 7 8 10 8 7 10 7 13 24 13 7 10 15 16 15 16 10 11 14 7 10 8 11 12 19 13 18
27 25 25 26 25 26 24 21 19 18 16 16 16 16 14 15 15 13 12 8 7 9 10 7 6 10 8 5 19 19 20 15 11 11 10 15 13 6 11 7 6 10 12 22 15 18 15
27 26 26 26 27 25 23 22 21 18 17 17 16 16 15 14 15 12 10 9 8 10 8 6 11 3 8 11 11 17 21 23 14 8 8 9 5 7 7 11 16 12 16 14 18 17 18
34 31 29 27 28 26 23 23 21 20 18 16 15 14 15 13 14 11 10 4 1 2 7 9 8 9 2 9 2 9 16 15 14 12 12 11 9 17 23 22 18 15 17 16 17 17 21
31 31 29 30 28 28 25 23 21 19 18 16 14 13 13 12 12 10 10 3 4 3 6 17 17 19 23 7 7 11 15 13 15 16 14 10 21 25 14 17 18 21 18 17 15 20 20
34 33 28 28 31 28 26 24 22 20 18 16 14 13 13 11 10 10 14 13 7 4 6 6 20 16 14 13 13 12 17 17 15 17 17 19 20 16 18 18 20 22 23 16 15 15 9
34 32 33 33 19 28 28 26 25 22 19 17 15 13 12 11 5 12 16 11 16 6 5 5 6 6 13 6 7 17 17 17 11 18 17 15 18 20 19 23 19 22 23 22 19 17 11
34 31 32 32 30 24 30 28 25 24 21 17 16 15 16 20 8 7 5 6 5 4 5 7 6 5 5 11 4 10 23 14 18 15 9 10 11 18 22 21 20 20 17 22 27 11 4
34 32 31 28 31 30 27 29 25 23 21 18 18 18 19 17 13 6 10 12 7 2 7 5 5 7 7 9 6 6 18 19 13 16 14 13 9 12 16 21 20 22 15 20 18 11 8
35 36 31 29 25 33 35 27 26 22 21 20 20 19 26 16 6 19 17 5 2 5 2 4 4 6 13 9 10 6 16 20 11 6 13 7 19 8 4 12 20 22 14 8 7 6 4
36 36 30 28 25 31 29 20 26 22 20 19 19 17 29 16 17 26 17 2 7 7 6 3 3 8 7 7 7 12 7 17 18 10 2 9 8 14 14 11 15 24 22 3 5 5 6
39 36 32 26 21 31 33 20 22 22 20 18 17 19 19 25 26 28 4 4 5 3 4 6 5 6 6 7 7 13 13 12 14 19 7 3 9 5 10 15 16 10 9 17 6 10 6
36 38 33 26 23 27 31 17 20 21 20 18 15 11 9 28 31 18 3 8 6 4 5 5 9 13 9 10 8 11 13 10 18 18 15 3 6 6 12 8 9 7 8 10 4 7 7
36 39 35 41 18 17 25 26 18 21 21 22 10 3 13 30 25 4 5 7 7 10 8 7 9 10 12 10 13 12 9 11 13 12 13 5 3 1 1 8 13 8 6 9 4 5 5
37 39 36 42 17 15 22 28 16 22 21 25 5 3 22 33 5 2 4 5 3 6 16 12 10 15 11 11 13 10 12 6 15 14 10 9 4 4 6 4 12 10 8 11 3 2 1
37 39 41 34 23 16 25 30 20 26 30 14 5 3 21 19 6 5 6 6 8 3 6 9 9 13 7 6 8 13 12 7 19 13 11 12 5 2 5 8 1 4 7 5 5 3 3
36 37 42 32 27 20 27 33 13 28 32 17 3 4 3 3 2 6 9 7 6 14 17 15 13 16 9 10 10 6 9 6 14 14 13 7 6 6 5 6 11 6 7 6 5 1 2
35 36 40 37 29 26 28 25 9 29 33 13 3 4 5 5 7 11 5 5 7 6 11 15 7 17 10 8 9 7 11 6 8 9 11 4 4 13 10 18 17 14 9 8 9 7 1
35 34 39 38 30 28 29 32 32 29 34 6 4 3 3 3 8 15 15 9 13 6 4 9 14 9 14 9 8 11 12 10 8 8 15 12 6 12 10 6 12 13 13 12 10 7 7
35 34 37 37 29 30 28 28 32 29 29 3 4 2 1 4 8 8 6 10 11 11 11 17 13 15 12 12 7 12 10 11 7 10 11 6 4 5 4 4 5 4 8 14 9 8 8
32 32 35 36 30 28 28 27 33 27 30 6 4 2 2 4 6 7 11 8 15 13 11 9 13 16 3 5 2 12 9 9 7 2 6 7 3 3 2 2 1 2 1 5 11 8 10
30 29 32 35 32 29 28 28 30 15 30 13 6 4 2 2 6 12 13 4 3 1 6 8 2 2 5 6 3 3 2 4 5 4 6 9 2 1 1 3 6 1 1 1 6 9 8
29 29 32 34 31 28 26 26 30 10 26 19 10 8 1 2 2 6 8 3 2 2 0 4 1 4 6 2 2 3 4 3 3 3 5 6 6 3 4 1 3 2 2 6 3 2 6
28 28 31 32 28 27 27 27 29 13 25 20 6 18 3 1 5 4 4 2 4 2 1 3 4 2 3 3 6 4 3 7 6 6 4 4 3 5 4 2 6 2 3 4 4 3 6
27 28 30 33 29 26 24 24 25 8 23 23 6 16 8 2 3 1 2 1 1 2 3 4 4 4 3 3 1 3 3 6 5 7 6 6 5 3 3 2 6 6 4 2 2 2 4
26 27 29 31 29 27 24 24 22 18 22 24 3 17 20 2 2 2 5 6 5 2 1 2 3 5 4 3 2 2 1 3 4 4 6 7 6 5 7 5 1 3 3 1 3 4 5
Wind_Direction
296 290 289 291 286 284 278 286 284 278 266 262 261 261 263 269 276 280 285 293 301 305 294 277 256 237 167 212 239 192 96 50 225 208 222 233 240 242 242 244 239 242 244 246 237 252 268
292 288 289 280 286 282 279 274 277 282 268 261 262 261 258 257 261 263 270 278 288 287 290 275 259 235 241 238 244 239 236 225 290 268 205 242 250 244 270 249 258 264 244 262 266 250 235
286 286 283 281 285 274 278 275 268 274 272 256 259 261 259 257 254 256 264 271 283 286 281 278 263 220 241 231 246 246 221 245 256 268 278 207 245 279 270 262 298 257 267 247 244 245 246
284 280 278 278 278 271 275 271 266 264 267 258 253 259 259 252 253 258 259 254 261 276 270 270 262 228 249 247 248 246 252 244 256 252 254 271 284 251 274 333 312 280 233 250 239 249 237
278 276 274 272 270 270 272 268 266 261 261 257 251 252 255 254 252 253 254 257 279 284 287 249 234 227 262 251 226 226 220 221 222 233 234 239 259 258 262 246 271 242 234 224 243 235 229
306 275 271 272 267 268 268 266 265 260 261 256 253 252 249 253 250 249 242 250 278 288 289 223 255 282 248 235 227 222 225 223 239 249 237 218 221 225 214 206 220 222 226 238 220 227 238
329 319 268 269 266 267 264 266 261 258 258 255 255 247 242 251 247 244 217 272 267 211 194 199 197 216 110 267 204 198 209 205 222 237 228 206 212 219 212 213 229 249 251 239 239 211 234
329 320 269 265 263 263 261 259 257 254 253 246 250 229 239 241 240 235 210 204 234 98 274 219 249 228 246 323 233 214 193 196 201 216 214 219 226 226 226 236 239 240 251 268 243 247 221
324 326 321 278 265 258 258 254 249 249 247 240 237 221 231 225 232 224 214 223 253 299 265 195 219 228 229 217 233 217 198 200 201 212 208 216 236 232 238 234 236 239 238 244 254 230 267
323 322 310 312 311 265 256 250 249 245 244 236 228 212 205 192 200 216 217 237 242 225 269 203 212 238 220 146 249 240 207 203 224 223 215 235 240 239 229 233 230 234 238 233 250 255 198
324 317 317 303 319 312 264 250 246 242 239 233 223 206 195 189 137 175 157 214 170 114 282 118 163 167 202 186 86 218 215 229 224 214 194 219 214 223 230 235 238 239 243 220 240 238 171
323 317 318 298 289 316 305 251 242 240 232 226 221 204 192 202 231 157 141 135 103 126 251 162 131 183 179 198 206 292 189 209 222 237 225 247 260 230 224 230 234 250 256 275 241 211 221
327 322 311 308 288 300 311 258 240 236 228 222 218 212 190 177 193 170 135 105 122 230 79 184 182 188 213 202 213 195 199 205 204 193 230 230 244 239 318 252 224 230 210 226 218 194 221
329 325 314 309 279 299 308 287 241 229 223 216 215 218 191 178 165 154 143 103 228 238 204 118 191 202 218 203 209 199 213 205 214 218 333 223 242 196 192 234 212 207 209 205 166 193 153
333 330 322 317 296 290 307 284 233 227 214 213 204 190 166 184 164 155 153 199 228 236 179 181 176 211 214 202 242 198 218 213 210 204 212 262 231 207 202 212 186 184 218 239 265 188 127
334 331 330 323 304 277 308 319 232 222 207 201 172 144 170 180 166 154 188 220 231 224 156 205 215 198 203 186 191 198 201 201 224 208 191 189 280 193 196 206 199 208 204 205 232 164 164
335 336 332 324 310 302 304 323 245 215 197 188 142 148 175 175 156 180 217 221 254 225 180 211 234 243 245 168 202 194 217 240 193 186 145 174 212 288 252 188 170 185 214 233 111 232 145
337 339 333 329 330 310 316 313 285 204 190 175 146 164 159 157 170 184 222 202 205 234 205 233 255 278 230 193 200 194 243 225 167 149 174 177 271 274 244 281 177 176 226 233 226 42 298
336 338 336 333 336 317 314 327 284 192 185 144 143 117 163 159 191 200 226 232 206 267 226 201 248 236 241 240 188 205 230 218 141 158 165 161 217 193 341 151 42 212 228 280 351 312 214
332 335 334 340 344 336 305 321 216 190 184 162 150 156 137 206 266 215 212 225 220 220 239 226 260 250 235 240 190 186 227 183 168 175 183 186 182 210 256 108 131 175 208 242 205 337 359
333 333 337 341 350 340 345 335 260 192 184 160 173 187 162 178 220 231 193 232 210 232 213 201 247 251 221 217 215 214 227 208 183 184 174 229 250 214 243 132 156 169 184 241 207 223 24
334 334 337 341 342 340 333 334 347 195 188 157 142 189 159 180 200 212 226 231 238 204 260 216 234 256 236 211 209 196 182 226 175 185 202 220 297 313 88 74 154 172 188 204 218 212 242
332 333 335 339 339 343 337 326 339 192 179 141 173 284 40 166 187 197 213 217 219 211 232 251 241 235 277 211 258 216 180 205 180 171 185 183 251 314 51 83 82 349 206 197 209 218 213
332 329 332 335 336 344 337 331 340 198 195 137 157 142 148 250 256 233 238 217 211 229 220 215 229 200 329 343 85 70 40 56 31 161 192 186 217 316 6 32 102 223 53 232 205 209 215
330 329 331 333 335 340 340 335 321 229 204 184 154 140 208 257 266 282 290 171 77 274 217 226 240 14 1 345 136 88 68 6 13 24 348 173 157 329 114 262 321 232 13 195 180 234 210
331 329 331 334 333 336 337 324 326 255 209 200 187 173 94 346 217 350 314 100 210 191 98 138 309 343 51 318 188 147 181 147 183 343 345 100 97 60 1 136 238 80 348 314 53 299 347
329 329 330 332 332 335 334 324 328 299 210 200 188 203 135 229 280 358 326 329 131 198 85 126 130 129 93 213 208 182 155 160 162 167 157 134 104 205 205 325 305 103 147 314 110 255 327
326 327 329 331 333 332 327 321 321 272 210 203 205 199 178 225 280 62 345 265 146 167 194 156 140 205 155 148 170 263 156 192 142 153 161 169 146 165 123 167 265 144 61 147 176 350 23
322 325 327 329 331 334 327 319 321 348 212 203 175 194 207 260 319 295 265 248 205 214 245 147 299 160 146 140 244 236 157 152 148 163 184 169 196 171 188 206 203 83 84 137 100 117 75